Location: Jackson
(42.2460°N, 84.4010°W)
Time: 18:34:23
(UTC-04:00)

Courier 1B Rocket - Pass Details

Date: 08 February 2026
Orbit: 920 x 1201 km, 28.2° (Epoch: 12 March)

Event Time Altitude Azimuth Distance (km) Brightness Sun altitude
Rises 03:23:48 0° 255° (WSW) 3,983 - -47.5°
Reaches altitude 10° 03:27:12 10° 242° (WSW) 3,060 - -46.9°
Maximum altitude 03:32:53 23° 193° (SSW) 2,276 - -46.0°
Drops below altitude 10° 03:38:41 10° 145° (SE) 3,124 - -45.0°
Exits shadow 03:39:52 - 139° (SE) 3,429 8.0 -44.8°
Sets 03:42:12 0° 131° (SE) 4,086 8.5 -44.4°
